Simultaneous Nadir Overpasses (SNOs) Predictions

Prediction of SNOs near US between AQUA and NPP Satellite Orbit:

Table of predicted SNOs near US for the next 10.0 days since TLE Epoch: 10/2/2021
Index Date (AQUA) Time (AQUA) AQUA Lat,Lon Date (NPP) Time (NPP) NPP Lat,Lon Distance(km) Time Diff (sec)
1 10/02/2021 09:23:15 24.66,-113.14 10/02/2021 09:16:12 24.79,-113.66 54.14 423
2 10/05/2021 06:30:21 46.37, -65.03 10/05/2021 06:31:20 46.77, -67.12 166.11 59
3 10/05/2021 08:08:14 49.93, -88.34 10/05/2021 08:11:46 50.45, -90.92 192.98 212
4 10/05/2021 09:47:07 49.94,-113.06 10/05/2021 09:53:14 50.56,-116.25 237.33 367
5 10/07/2021 19:06:24 49.98, -92.56 10/07/2021 19:02:04 49.61, -94.53 147.53 260
6 10/07/2021 20:45:17 49.98,-117.27 10/07/2021 20:43:32 49.50,-119.86 192.84 105
7 10/10/2021 08:35:02 20.26,-101.83 10/10/2021 08:26:46 20.30,-102.10 28.74 496
8 10/10/2021 10:11:24 29.35,-124.32 10/10/2021 10:05:39 29.49,-125.10 76.72 345
